| time (UTC) | temp F | wind direction | speed MPH | gust MPH | rain 1hr in | rain 24hr in | rain mn in | humidity % | barometer mb |
| 20260504004003 | 78 | 131 | 4.0 | 12.0 | 0.00 | 0.00 | 0.00 | 39 | 1014.2 |
| 20260504003503 | 78 | 127 | 4.0 | 12.0 | 0.00 | 0.00 | 0.00 | 39 | 1014.2 |
| 20260504003003 | 78 | 127 | 4.0 | 12.0 | 0.00 | 0.00 | 0.00 | 39 | 1014.2 |
| 20260504002713 | 78 | 128 | 4.0 | 12.0 | 0.00 | 0.00 | 0.00 | 39 | 1014.3 |
| 20260504002003 | 78 | 136 | 5.0 | 12.0 | 0.00 | 0.00 | 0.00 | 38 | 1014.3 |
| 20260504001503 | 79 | 141 | 5.0 | 12.0 | 0.00 | 0.00 | 0.00 | 37 | 1014.4 |
| 20260504001003 | 79 | 136 | 4.0 | 10.0 | 0.00 | 0.00 | 0.00 | 37 | 1014.4 |
| 20260504000712 | 79 | 133 | 4.0 | 10.0 | 0.00 | 0.00 | 0.00 | 37 | 1014.4 |
| 20260504000003 | 79 | 129 | 4.0 | 12.0 | 0.00 | 0.00 | 0.00 | 37 | 1014.4 |
| 20260503235503 | 80 | 142 | 5.0 | 12.0 | 0.00 | 0.00 | 0.00 | 36 | 1014.4 |
| 20260503235003 | 80 | 151 | 4.0 | 11.0 | 0.00 | 0.00 | 0.00 | 36 | 1014.6 |
| 20260503234503 | 80 | 159 | 3.0 | 8.0 | 0.00 | 0.00 | 0.00 | 37 | 1014.6 |
| 20260503234213 | 80 | 161 | 3.0 | 7.0 | 0.00 | 0.00 | 0.00 | 38 | 1014.6 |
| 20260503233503 | 80 | 148 | 4.0 | 9.0 | 0.00 | 0.00 | 0.00 | 36 | 1014.6 |
| 20260503233003 | 80 | 143 | 4.0 | 11.0 | 0.00 | 0.00 | 0.00 | 37 | 1014.8 |
| 20260503232712 | 81 | 146 | 4.0 | 11.0 | 0.00 | 0.00 | 0.00 | 37 | 1014.8 |
| 20260503232003 | 81 | 146 | 4.0 | 11.0 | 0.00 | 0.00 | 0.00 | 37 | 1014.8 |
| 20260503231503 | 81 | 140 | 4.0 | 13.0 | 0.00 | 0.00 | 0.00 | 37 | 1014.8 |
| 20260503231003 | 82 | 144 | 4.0 | 13.0 | 0.00 | 0.00 | 0.00 | 35 | 1014.8 |
| 20260503230712 | 82 | 152 | 4.0 | 11.0 | 0.00 | 0.00 | 0.00 | 36 | 1014.9 |
| 20260503230003 | 82 | 171 | 3.0 | 8.0 | 0.00 | 0.00 | 0.00 | 36 | 1015.0 |
| 20260503225503 | 82 | 167 | 3.0 | 9.0 | 0.00 | 0.00 | 0.00 | 36 | 1015.0 |
| 20260503225003 | 81 | 133 | 4.0 | 9.0 | 0.00 | 0.00 | 0.00 | 37 | 1015.0 |
| 20260503224503 | 81 | 118 | 5.0 | 12.0 | 0.00 | 0.00 | 0.00 | 36 | 1015.0 |
| 20260503224213 | 82 | 113 | 5.0 | 12.0 | 0.00 | 0.00 | 0.00 | 35 | 1015.0 |
| 20260503223503 | 82 | 140 | 4.0 | 12.0 | 0.00 | 0.00 | 0.00 | 35 | 1015.1 |
| 20260503223003 | 83 | 149 | 3.0 | 12.0 | 0.00 | 0.00 | 0.00 | 35 | 1015.1 |
| 20260503222503 | 83 | 149 | 3.0 | 11.0 | 0.00 | 0.00 | 0.00 | 36 | 1015.1 |
| 20260503222003 | 82 | 146 | 3.0 | 11.0 | 0.00 | 0.00 | 0.00 | 35 | 1015.2 |
| 20260503221503 | 82 | 131 | 3.0 | 8.0 | 0.00 | 0.00 | 0.00 | 35 | 1015.3 |
| 20260503221003 | 82 | 142 | 3.0 | 9.0 | 0.00 | 0.00 | 0.00 | 34 | 1015.4 |
| 20260503220503 | 83 | 169 | 3.0 | 10.0 | 0.00 | 0.00 | 0.00 | 34 | 1015.4 |
| 20260503220003 | 83 | 151 | 4.0 | 11.0 | 0.00 | 0.00 | 0.00 | 34 | 1015.4 |
| 20260503215503 | 83 | 131 | 5.0 | 11.0 | 0.00 | 0.00 | 0.00 | 34 | 1015.5 |
| 20260503215003 | 84 | 133 | 3.0 | 10.0 | 0.00 | 0.00 | 0.00 | 35 | 1015.4 |
| 20260503214503 | 83 | 126 | 4.0 | 13.0 | 0.00 | 0.00 | 0.00 | 34 | 1015.5 |
| 20260503214212 | 83 | 130 | 4.0 | 13.0 | 0.00 | 0.00 | 0.00 | 34 | 1015.6 |
| 20260503213503 | 84 | 152 | 4.0 | 10.0 | 0.00 | 0.00 | 0.00 | 34 | 1015.7 |
| 20260503213003 | 84 | 136 | 4.0 | 9.0 | 0.00 | 0.00 | 0.00 | 34 | 1015.8 |
| 20260503212503 | 84 | 130 | 5.0 | 10.0 | 0.00 | 0.00 | 0.00 | 35 | 1015.9 |
| 20260503212003 | 84 | 137 | 4.0 | 10.0 | 0.00 | 0.00 | 0.00 | 33 | 1015.9 |
| 20260503211713 | 84 | 144 | 4.0 | 13.0 | 0.00 | 0.00 | 0.00 | 34 | 1016.0 |
| 20260503211212 | 84 | 168 | 4.0 | 13.0 | 0.00 | 0.00 | 0.00 | 35 | 1016.1 |
| 20260503210503 | 84 | 156 | 4.0 | 11.0 | 0.00 | 0.00 | 0.00 | 35 | 1016.2 |
| 20260503210003 | 84 | 147 | 4.0 | 11.0 | 0.00 | 0.00 | 0.00 | 34 | 1016.2 |
| 20260503205503 | 84 | 178 | 4.0 | 9.0 | 0.00 | 0.00 | 0.00 | 34 | 1016.5 |
| 20260503205003 | 84 | 172 | 4.0 | 9.0 | 0.00 | 0.00 | 0.00 | 32 | 1016.4 |
| 20260503204503 | 84 | 145 | 4.0 | 9.0 | 0.00 | 0.00 | 0.00 | 36 | 1016.6 |
| 20260503204003 | 84 | 156 | 3.0 | 10.0 | 0.00 | 0.00 | 0.00 | 33 | 1016.7 |
| 20260503203503 | 84 | 193 | 4.0 | 10.0 | 0.00 | 0.00 | 0.00 | 35 | 1016.8 |
| 20260503203003 | 83 | 197 | 4.0 | 11.0 | 0.00 | 0.00 | 0.00 | 34 | 1016.8 |
| 20260503202503 | 84 | 202 | 4.0 | 13.0 | 0.00 | 0.00 | 0.00 | 34 | 1017.0 |
| 20260503202003 | 84 | 205 | 4.0 | 13.0 | 0.00 | 0.00 | 0.00 | 34 | 1017.1 |
| 20260503201713 | 84 | 199 | 3.0 | 11.0 | 0.00 | 0.00 | 0.00 | 33 | 1017.1 |
| 20260503201003 | 84 | 197 | 3.0 | 10.0 | 0.00 | 0.00 | 0.00 | 35 | 1017.1 |
| 20260503200713 | 84 | 180 | 3.0 | 10.0 | 0.00 | 0.00 | 0.00 | 34 | 1017.2 |
| 20260503200003 | 84 | 199 | 3.0 | 10.0 | 0.00 | 0.00 | 0.00 | 36 | 1017.2 |
| 20260503195503 | 83 | 222 | 3.0 | 10.0 | 0.00 | 0.00 | 0.00 | 35 | 1017.3 |
| 20260503195003 | 84 | 207 | 3.0 | 9.0 | 0.00 | 0.00 | 0.00 | 34 | 1017.5 |
| 20260503194503 | 84 | 164 | 3.0 | 8.0 | 0.00 | 0.00 | 0.00 | 34 | 1017.5 |
| 20260503194003 | 83 | 164 | 3.0 | 12.0 | 0.00 | 0.00 | 0.00 | 37 | 1017.6 |
| 20260503193713 | 83 | 167 | 4.0 | 12.0 | 0.00 | 0.00 | 0.00 | 35 | 1017.8 |
| 20260503193003 | 83 | 159 | 3.0 | 9.0 | 0.00 | 0.00 | 0.00 | 36 | 1017.8 |
| 20260503192713 | 83 | 149 | 3.0 | 8.0 | 0.00 | 0.00 | 0.00 | 35 | 1017.7 |
| 20260503192003 | 84 | 181 | 3.0 | 8.0 | 0.00 | 0.00 | 0.00 | 39 | 1018.2 |
| 20260503191503 | 83 | 189 | 3.0 | 8.0 | 0.00 | 0.00 | 0.00 | 34 | 1018.1 |
| 20260503191003 | 83 | 173 | 4.0 | 10.0 | 0.00 | 0.00 | 0.00 | 38 | 1018.3 |
| 20260503190503 | 83 | 147 | 4.0 | 10.0 | 0.00 | 0.00 | 0.00 | 40 | 1018.3 |
| 20260503190003 | 83 | 148 | 3.0 | 10.0 | 0.00 | 0.00 | 0.00 | 39 | 1018.4 |
| 20260503185503 | 83 | 141 | 4.0 | 14.0 | 0.00 | 0.00 | 0.00 | 40 | 1018.4 |
| 20260503185003 | 82 | 159 | 4.0 | 14.0 | 0.00 | 0.00 | 0.00 | 40 | 1018.6 |
| 20260503184712 | 82 | 186 | 4.0 | 10.0 | 0.00 | 0.00 | 0.00 | 40 | 1018.5 |
| 20260503184003 | 82 | 215 | 3.0 | 9.0 | 0.00 | 0.00 | 0.00 | 40 | 1018.7 |
| 20260503183503 | 82 | 201 | 3.0 | 9.0 | 0.00 | 0.00 | 0.00 | 41 | 1018.7 |
| 20260503183213 | 82 | 173 | 3.0 | 9.0 | 0.00 | 0.00 | 0.00 | 41 | 1018.8 |
| 20260503182503 | 82 | 176 | 3.0 | 8.0 | 0.00 | 0.00 | 0.00 | 40 | 1018.8 |
| 20260503182003 | 82 | 196 | 3.0 | 9.0 | 0.00 | 0.00 | 0.00 | 41 | 1019.0 |
| 20260503181712 | 82 | 215 | 3.0 | 11.0 | 0.00 | 0.00 | 0.00 | 41 | 1019.0 |
| 20260503181003 | 81 | 208 | 4.0 | 11.0 | 0.00 | 0.00 | 0.00 | 40 | 1019.2 |
| 20260503180503 | 82 | 171 | 4.0 | 11.0 | 0.00 | 0.00 | 0.00 | 42 | 1019.3 |
| 20260503180003 | 81 | 183 | 4.0 | 10.0 | 0.00 | 0.00 | 0.00 | 42 | 1019.3 |
| 20260503175712 | 81 | 201 | 3.0 | 10.0 | 0.00 | 0.00 | 0.00 | 43 | 1019.3 |
| 20260503175003 | 81 | 206 | 4.0 | 10.0 | 0.00 | 0.00 | 0.00 | 45 | 1019.5 |
| 20260503174503 | 81 | 208 | 3.0 | 10.0 | 0.00 | 0.00 | 0.00 | 45 | 1019.7 |
| 20260503174003 | 82 | 208 | 3.0 | 10.0 | 0.00 | 0.00 | 0.00 | 47 | 1019.7 |
| 20260503173503 | 81 | 190 | 3.0 | 7.0 | 0.00 | 0.00 | 0.00 | 44 | 1019.8 |
| 20260503173003 | 81 | 164 | 3.0 | 7.0 | 0.00 | 0.00 | 0.00 | 47 | 1019.8 |
| 20260503172503 | 81 | 162 | 3.0 | 9.0 | 0.00 | 0.00 | 0.00 | 45 | 1019.8 |
| 20260503172003 | 80 | 184 | 3.0 | 9.0 | 0.00 | 0.00 | 0.00 | 45 | 1019.9 |
| 20260503171503 | 80 | 197 | 3.0 | 8.0 | 0.00 | 0.00 | 0.00 | 47 | 1020.0 |
| 20260503171213 | 80 | 197 | 3.0 | 8.0 | 0.00 | 0.00 | 0.00 | 47 | 1020.1 |
| 20260503170714 | 80 | 207 | 3.0 | 8.0 | 0.00 | 0.00 | 0.00 | 47 | 1020.1 |
| 20260503151003 | 74 | 219 | 4.0 | 9.0 | 0.00 | 0.00 | 0.00 | 55 | 1020.7 |
| 20260503150503 | 73 | 222 | 3.0 | 7.0 | 0.00 | 0.00 | 0.00 | 55 | 1020.6 |
| 20260503131003 | 61 | 169 | 1.0 | 2.0 | 0.00 | 0.00 | 0.00 | 72 | 1020.2 |
| 20260503130503 | 61 | 177 | 0.0 | 2.0 | 0.00 | 0.00 | 0.00 | 73 | 1020.2 |
| 20260503110503 | 56 | 0 | 0.0 | 0.0 | 0.00 | 0.00 | 0.00 | 76 | 1019.3 |
| 20260503110212 | 57 | 0 | 0.0 | 0.0 | 0.00 | 0.00 | 0.00 | 76 | 1019.3 |
| 20260503090503 | 56 | 0 | 0.0 | 0.0 | 0.00 | 0.00 | 0.00 | 79 | 1019.2 |
| 20260503081214 | 57 | 0 | 0.0 | 0.0 | 0.00 | 0.00 | 0.00 | 76 | 1019.1 |
| 20260503080503 | 58 | 175 | 0.0 | 1.0 | 0.00 | 0.00 | 0.00 | 75 | 1019.2 |
| 20260503072503 | 60 | 206 | 0.0 | 2.0 | 0.00 | 0.00 | 0.00 | 70 | 1019.4 |
| 20260503072003 | 60 | 205 | 0.0 | 2.0 | 0.00 | 0.00 | 0.00 | 69 | 1019.4 |
| 20260503071503 | 60 | 204 | 0.0 | 2.0 | 0.00 | 0.00 | 0.00 | 69 | 1019.5 |
| 20260503071003 | 61 | 203 | 0.0 | 3.0 | 0.00 | 0.00 | 0.00 | 69 | 1019.4 |
| 20260503070503 | 61 | 212 | 0.0 | 3.0 | 0.00 | 0.00 | 0.00 | 68 | 1019.5 |
| 20260503070213 | 61 | 226 | 0.0 | 2.0 | 0.00 | 0.00 | 0.00 | 68 | 1019.5 |
| 20260503060213 | 62 | 166 | 0.0 | 2.0 | 0.00 | 0.00 | 0.00 | 67 | 1019.4 |
| 20260503055003 | 62 | 132 | 0.0 | 3.0 | 0.00 | 0.00 | 0.00 | 67 | 1019.3 |
| 20260503054713 | 62 | 127 | 0.0 | 3.0 | 0.00 | 0.00 | 0.00 | 67 | 1019.3 |
| 20260503054003 | 62 | 122 | 0.0 | 3.0 | 0.00 | 0.00 | 0.00 | 68 | 1019.3 |
| 20260503053503 | 61 | 121 | 0.0 | 2.0 | 0.00 | 0.00 | 0.00 | 68 | 1019.3 |
| 20260503053003 | 61 | 121 | 0.0 | 1.0 | 0.00 | 0.00 | 0.00 | 69 | 1019.3 |
| 20260503052503 | 61 | 121 | 0.0 | 1.0 | 0.00 | 0.00 | 0.00 | 70 | 1019.2 |
| 20260503052003 | 61 | 121 | 0.0 | 1.0 | 0.00 | 0.00 | 0.00 | 70 | 1019.1 |
| 20260503051503 | 61 | 121 | 0.0 | 1.0 | 0.00 | 0.00 | 0.00 | 70 | 1019.2 |
| 20260503051003 | 61 | 121 | 0.0 | 1.0 | 0.00 | 0.00 | 0.00 | 70 | 1019.2 |
| 20260503050503 | 62 | 0 | 0.0 | 0.0 | 0.00 | 0.00 | 0.00 | 68 | 1019.0 |
| 20260503050214 | 62 | 121 | 0.0 | 1.0 | 0.00 | 0.00 | 0.00 | 68 | 1019.0 |
| 20260503045503 | 62 | 121 | 0.0 | 1.0 | 0.00 | 0.00 | 0.00 | 67 | 1019.0 |
| 20260503045003 | 62 | 0 | 0.0 | 0.0 | 0.00 | 0.00 | 0.00 | 67 | 1019.0 |
| 20260503044713 | 63 | 119 | 0.0 | 1.0 | 0.00 | 0.00 | 0.00 | 66 | 1019.0 |
| 20260503044003 | 63 | 118 | 0.0 | 1.0 | 0.00 | 0.00 | 0.00 | 66 | 1019.0 |
| 20260503043503 | 63 | 117 | 0.0 | 1.0 | 0.00 | 0.00 | 0.00 | 66 | 1019.0 |
| 20260503043003 | 63 | 117 | 0.0 | 1.0 | 0.00 | 0.00 | 0.00 | 67 | 1018.9 |
| 20260503042503 | 63 | 117 | 0.0 | 1.0 | 0.00 | 0.00 | 0.00 | 67 | 1019.0 |
| 20260503042003 | 63 | 117 | 0.0 | 2.0 | 0.00 | 0.00 | 0.00 | 66 | 1019.0 |
| 20260503041503 | 63 | 117 | 0.0 | 2.0 | 0.00 | 0.00 | 0.00 | 66 | 1018.9 |
| 20260503041003 | 63 | 116 | 0.0 | 2.0 | 0.00 | 0.00 | 0.00 | 66 | 1019.0 |
| 20260503040503 | 64 | 115 | 0.0 | 3.0 | 0.00 | 0.00 | 0.00 | 65 | 1019.0 |
| 20260503040214 | 64 | 119 | 0.0 | 3.0 | 0.00 | 0.00 | 0.00 | 65 | 1019.1 |
| 20260503035503 | 64 | 162 | 0.0 | 1.0 | 0.00 | 0.00 | 0.00 | 64 | 1019.0 |
| 20260503035003 | 64 | 0 | 0.0 | 0.0 | 0.00 | 0.00 | 0.00 | 64 | 1019.1 |
| 20260503034503 | 64 | 162 | 0.0 | 2.0 | 0.00 | 0.00 | 0.00 | 64 | 1019.0 |
| 20260503034003 | 64 | 162 | 0.0 | 2.0 | 0.00 | 0.00 | 0.00 | 64 | 1019.0 |
| 20260503033503 | 64 | 163 | 0.0 | 2.0 | 0.00 | 0.00 | 0.00 | 65 | 1018.9 |
| 20260503033003 | 64 | 163 | 0.0 | 2.0 | 0.00 | 0.00 | 0.00 | 65 | 1019.0 |
| 20260503032503 | 64 | 199 | 0.0 | 2.0 | 0.00 | 0.00 | 0.00 | 66 | 1019.0 |
| 20260503032003 | 64 | 200 | 0.0 | 2.0 | 0.00 | 0.00 | 0.00 | 65 | 1019.0 |
| 20260503031503 | 64 | 202 | 0.0 | 1.0 | 0.00 | 0.00 | 0.00 | 65 | 1018.8 |
| 20260503031214 | 64 | 202 | 0.0 | 1.0 | 0.00 | 0.00 | 0.00 | 65 | 1018.9 |
| 20260503030503 | 64 | 0 | 0.0 | 0.0 | 0.00 | 0.00 | 0.00 | 67 | 1018.8 |
| 20260503030213 | 64 | 0 | 0.0 | 0.0 | 0.00 | 0.00 | 0.00 | 67 | 1018.8 |
| 20260503025712 | 64 | 0 | 0.0 | 0.0 | 0.00 | 0.00 | 0.00 | 68 | 1018.7 |
| 20260503025003 | 64 | 0 | 0.0 | 0.0 | 0.00 | 0.00 | 0.00 | 65 | 1018.6 |
| 20260503024712 | 64 | 0 | 0.0 | 0.0 | 0.00 | 0.00 | 0.00 | 65 | 1018.6 |
| 20260503024003 | 64 | 0 | 0.0 | 0.0 | 0.00 | 0.00 | 0.00 | 68 | 1018.6 |
| 20260503023503 | 64 | 0 | 0.0 | 0.0 | 0.00 | 0.00 | 0.00 | 69 | 1018.5 |
| 20260503023003 | 64 | 0 | 0.0 | 0.0 | 0.00 | 0.00 | 0.00 | 68 | 1018.5 |
| 20260503022503 | 65 | 0 | 0.0 | 0.0 | 0.00 | 0.00 | 0.00 | 68 | 1018.4 |
| 20260503022213 | 65 | 0 | 0.0 | 0.0 | 0.00 | 0.00 | 0.00 | 68 | 1018.4 |
| 20260503021712 | 65 | 0 | 0.0 | 0.0 | 0.00 | 0.00 | 0.00 | 66 | 1018.3 |
| 20260503021213 | 66 | 0 | 0.0 | 0.0 | 0.00 | 0.00 | 0.00 | 65 | 1018.4 |
| 20260503020503 | 66 | 0 | 0.0 | 0.0 | 0.00 | 0.00 | 0.00 | 63 | 1018.3 |
| 20260503020003 | 67 | 0 | 0.0 | 0.0 | 0.00 | 0.00 | 0.00 | 62 | 1018.3 |
| 20260503015503 | 67 | 0 | 0.0 | 0.0 | 0.00 | 0.00 | 0.00 | 59 | 1018.2 |
| 20260503015003 | 68 | 0 | 0.0 | 0.0 | 0.00 | 0.00 | 0.00 | 59 | 1018.2 |
| 20260503014503 | 68 | 0 | 0.0 | 0.0 | 0.00 | 0.00 | 0.00 | 58 | 1018.3 |
| 20260503014003 | 68 | 0 | 0.0 | 0.0 | 0.00 | 0.00 | 0.00 | 57 | 1018.2 |
| 20260503013712 | 68 | 0 | 0.0 | 0.0 | 0.00 | 0.00 | 0.00 | 57 | 1018.2 |
| 20260503013003 | 69 | 0 | 0.0 | 0.0 | 0.00 | 0.00 | 0.00 | 60 | 1018.2 |
| 20260503012714 | 69 | 0 | 0.0 | 0.0 | 0.00 | 0.00 | 0.00 | 58 | 1018.1 |
| 20260503012003 | 70 | 0 | 0.0 | 0.0 | 0.00 | 0.00 | 0.00 | 56 | 1018.1 |
| 20260503011503 | 70 | 0 | 0.0 | 0.0 | 0.00 | 0.00 | 0.00 | 53 | 1018.1 |
| 20260503011003 | 71 | 0 | 0.0 | 0.0 | 0.00 | 0.00 | 0.00 | 53 | 1018.1 |
| 20260503010503 | 71 | 0 | 0.0 | 0.0 | 0.00 | 0.00 | 0.00 | 52 | 1018.1 |
| 20260503010003 | 72 | 234 | 0.0 | 2.0 | 0.00 | 0.00 | 0.00 | 52 | 1018.0 |
| 20260503005503 | 72 | 234 | 0.0 | 2.0 | 0.00 | 0.00 | 0.00 | 51 | 1018.0 |
| 20260503005003 | 72 | 235 | 0.0 | 2.0 | 0.00 | 0.00 | 0.00 | 52 | 1017.9 |
| 20260503004503 | 73 | 236 | 0.0 | 2.0 | 0.00 | 0.00 | 0.00 | 50 | 1017.9 |